Year,Month,Day,Hour,Minute,Value (Times are PST for temperature in C)
2009,05,22,00,00,10.00
2009,05,22,00,02,9.90
2009,05,22,00,03,9.90
2009,05,22,00,04,9.90
2009,05,22,00,05,9.90
2009,05,22,00,07,9.80
2009,05,22,00,08,9.80
2009,05,22,00,09,9.80
2009,05,22,00,11,9.80
2009,05,22,00,12,9.70
2009,05,22,00,13,9.70
2009,05,22,00,14,9.70
2009,05,22,00,15,9.60
2009,05,22,00,16,9.60
2009,05,22,00,18,9.60
2009,05,22,00,19,9.50
2009,05,22,00,20,9.50
2009,05,22,00,22,9.40
2009,05,22,00,23,9.40
2009,05,22,00,24,9.40
2009,05,22,00,25,9.30
2009,05,22,00,26,9.30
2009,05,22,00,27,9.30
2009,05,22,00,28,9.30
2009,05,22,00,29,9.30
2009,05,22,00,30,9.30
2009,05,22,00,31,9.20
2009,05,22,00,32,9.20
2009,05,22,00,33,9.20
2009,05,22,00,35,9.20
2009,05,22,00,36,9.10
2009,05,22,00,37,9.10
2009,05,22,00,38,9.10
2009,05,22,00,39,9.10
2009,05,22,00,40,9.10
2009,05,22,00,41,9.10
2009,05,22,00,42,9.00
2009,05,22,00,43,9.00
2009,05,22,00,44,9.00
2009,05,22,00,45,8.90
2009,05,22,00,46,8.90
2009,05,22,00,48,8.90
2009,05,22,00,49,8.90
2009,05,22,00,50,8.90
2009,05,22,00,51,8.90
2009,05,22,00,52,8.80
2009,05,22,00,53,8.80
2009,05,22,00,54,8.80
2009,05,22,00,56,8.80
2009,05,22,00,57,8.80
2009,05,22,00,58,8.80
2009,05,22,00,59,8.70
2009,05,22,01,00,8.70
2009,05,22,01,02,8.70
2009,05,22,01,03,8.70
2009,05,22,01,04,8.60
2009,05,22,01,05,8.60
2009,05,22,01,06,8.60
2009,05,22,01,07,8.60
2009,05,22,01,08,8.60
2009,05,22,01,09,8.50
2009,05,22,01,10,8.50
2009,05,22,01,11,8.40
2009,05,22,01,12,8.40
2009,05,22,01,13,8.40
2009,05,22,01,14,8.40
2009,05,22,01,15,8.30
2009,05,22,01,17,8.30
2009,05,22,01,19,8.20
2009,05,22,01,20,8.20
2009,05,22,01,21,8.20
2009,05,22,01,22,8.20
2009,05,22,01,23,8.10
2009,05,22,01,24,8.10
2009,05,22,01,25,8.10
2009,05,22,01,26,8.10
2009,05,22,01,27,8.10
2009,05,22,01,28,8.00
2009,05,22,01,29,8.00
2009,05,22,01,30,7.90
2009,05,22,01,31,7.90
2009,05,22,01,33,7.90
2009,05,22,01,34,7.90
2009,05,22,01,35,7.90
2009,05,22,01,36,7.80
2009,05,22,01,37,7.80
2009,05,22,01,38,7.80
2009,05,22,01,39,7.80
2009,05,22,01,40,7.80
2009,05,22,01,41,7.70
2009,05,22,01,42,7.70
2009,05,22,01,43,7.70
2009,05,22,01,44,7.70
2009,05,22,01,45,7.60
2009,05,22,01,46,7.60
2009,05,22,01,47,7.60
2009,05,22,01,48,7.60
2009,05,22,01,49,7.50
2009,05,22,01,50,7.50
2009,05,22,01,51,7.40
2009,05,22,01,52,7.40
2009,05,22,01,53,7.40
2009,05,22,01,54,7.40
2009,05,22,01,55,7.30
2009,05,22,01,56,7.30
2009,05,22,01,57,7.30
2009,05,22,01,58,7.30
2009,05,22,01,59,7.20
2009,05,22,02,00,7.20
2009,05,22,02,02,7.20
2009,05,22,02,03,7.20
2009,05,22,02,04,7.20
2009,05,22,02,05,7.20
2009,05,22,02,07,7.10
2009,05,22,02,08,7.10
2009,05,22,02,10,7.10
2009,05,22,02,11,7.00
2009,05,22,02,12,7.00
2009,05,22,02,13,7.00
2009,05,22,02,14,6.90
2009,05,22,02,16,6.90
2009,05,22,02,17,6.90
2009,05,22,02,18,6.80
2009,05,22,02,19,6.80
2009,05,22,02,20,6.80
2009,05,22,02,21,6.80
2009,05,22,02,22,6.80
2009,05,22,02,23,6.80
2009,05,22,02,24,6.80
2009,05,22,02,25,6.80
2009,05,22,02,26,6.80
2009,05,22,02,27,6.80
2009,05,22,02,28,6.80
2009,05,22,02,29,6.80
2009,05,22,02,30,6.80
2009,05,22,02,31,6.80
2009,05,22,02,32,6.80
2009,05,22,02,33,6.80
2009,05,22,02,34,6.70
2009,05,22,02,35,6.70
2009,05,22,02,36,6.70
2009,05,22,02,38,6.70
2009,05,22,02,39,6.70
2009,05,22,02,40,6.70
2009,05,22,02,41,6.70
2009,05,22,02,42,6.60
2009,05,22,02,43,6.60
2009,05,22,02,44,6.60
2009,05,22,02,45,6.60
2009,05,22,02,46,6.60
2009,05,22,02,47,6.60
2009,05,22,02,48,6.50
2009,05,22,02,49,6.50
2009,05,22,02,50,6.40
2009,05,22,02,51,6.40
2009,05,22,02,52,6.40
2009,05,22,02,53,6.30
2009,05,22,02,54,6.30
2009,05,22,02,55,6.30
2009,05,22,02,56,6.30
2009,05,22,02,57,6.30
2009,05,22,02,58,6.30
2009,05,22,02,59,6.20
2009,05,22,03,00,6.20
2009,05,22,03,02,6.20
2009,05,22,03,03,6.20
2009,05,22,03,04,6.10
2009,05,22,03,05,6.10
2009,05,22,03,06,6.10
2009,05,22,03,07,6.10
2009,05,22,03,08,6.10
2009,05,22,03,09,6.00
2009,05,22,03,10,6.00
2009,05,22,03,11,6.00
2009,05,22,03,12,6.00
2009,05,22,03,13,5.90
2009,05,22,03,14,5.90
2009,05,22,03,15,5.90
2009,05,22,03,16,5.90
2009,05,22,03,17,5.90
2009,05,22,03,18,5.90
2009,05,22,03,19,5.90
2009,05,22,03,20,5.90
2009,05,22,03,21,5.80
2009,05,22,03,22,5.80
2009,05,22,03,23,5.80
2009,05,22,03,24,5.80
2009,05,22,03,25,5.80
2009,05,22,03,26,5.80
2009,05,22,03,27,5.80
2009,05,22,03,28,5.70
2009,05,22,03,29,5.70
2009,05,22,03,30,5.70
2009,05,22,03,31,5.70
2009,05,22,03,32,5.70
2009,05,22,03,33,5.70
2009,05,22,03,34,5.60
2009,05,22,03,36,5.60
2009,05,22,03,37,5.60
2009,05,22,03,38,5.60
2009,05,22,03,39,5.60
2009,05,22,03,40,5.50
2009,05,22,03,41,5.60
2009,05,22,03,42,5.50
2009,05,22,03,43,5.50
2009,05,22,03,44,5.50
2009,05,22,03,45,5.50
2009,05,22,03,47,5.40
2009,05,22,03,48,5.40
2009,05,22,03,49,5.40
2009,05,22,03,50,5.40
2009,05,22,03,51,5.40
2009,05,22,03,52,5.40
2009,05,22,03,53,5.40
2009,05,22,03,54,5.30
2009,05,22,03,55,5.30
2009,05,22,03,56,5.30
2009,05,22,03,57,5.30
2009,05,22,03,58,5.30
2009,05,22,03,59,5.30
2009,05,22,04,00,5.30
2009,05,22,04,02,5.30
2009,05,22,04,04,5.20
2009,05,22,04,05,5.20
2009,05,22,04,06,5.20
2009,05,22,04,07,5.20
2009,05,22,04,08,5.20
2009,05,22,04,09,5.20
2009,05,22,04,10,5.20
2009,05,22,04,11,5.20
2009,05,22,04,12,5.20
2009,05,22,04,13,5.10
2009,05,22,04,14,5.10
2009,05,22,04,15,5.10
2009,05,22,04,16,5.10
2009,05,22,04,17,5.10
2009,05,22,04,18,5.10
2009,05,22,04,19,5.10
2009,05,22,04,20,5.10
2009,05,22,04,21,5.10
2009,05,22,04,22,5.10
2009,05,22,04,23,5.10
2009,05,22,04,24,5.10
2009,05,22,04,25,5.10
2009,05,22,04,27,5.10
2009,05,22,04,28,5.10
2009,05,22,04,29,5.10
2009,05,22,04,30,5.10
2009,05,22,04,31,5.10
2009,05,22,04,32,5.10
2009,05,22,04,34,5.10
2009,05,22,04,35,5.10
2009,05,22,04,36,5.00
2009,05,22,04,37,5.00
2009,05,22,04,38,5.00
2009,05,22,04,39,5.00
2009,05,22,04,40,5.00
2009,05,22,04,41,4.90
2009,05,22,04,43,4.90
2009,05,22,04,44,4.90
2009,05,22,04,45,4.90
2009,05,22,04,46,4.90
2009,05,22,04,47,4.90
2009,05,22,04,48,4.90
2009,05,22,04,49,4.80
2009,05,22,04,50,4.80
2009,05,22,04,51,4.80
2009,05,22,04,52,4.80
2009,05,22,04,53,4.80
2009,05,22,04,54,4.80
2009,05,22,04,55,4.70
2009,05,22,04,56,4.70
2009,05,22,04,57,4.70
2009,05,22,04,58,4.70
2009,05,22,04,59,4.70
2009,05,22,05,00,4.60
2009,05,22,05,02,4.60
2009,05,22,05,03,4.60
2009,05,22,05,04,4.60
2009,05,22,05,05,4.60
2009,05,22,05,06,4.60
2009,05,22,05,07,4.60
2009,05,22,05,08,4.60
2009,05,22,05,09,4.60
2009,05,22,05,10,4.60
2009,05,22,05,11,4.50
2009,05,22,05,12,4.50
2009,05,22,05,13,4.50
2009,05,22,05,14,4.40
2009,05,22,05,15,4.40
2009,05,22,05,16,4.40
2009,05,22,05,17,4.40
2009,05,22,05,18,4.40
2009,05,22,05,19,4.40
2009,05,22,05,20,4.40
2009,05,22,05,21,4.40
2009,05,22,05,22,4.30
2009,05,22,05,23,4.30
2009,05,22,05,24,4.30
2009,05,22,05,25,4.30
2009,05,22,05,26,4.30
2009,05,22,05,27,4.30
2009,05,22,05,28,4.30
2009,05,22,05,29,4.30
2009,05,22,05,30,4.30
2009,05,22,05,31,4.30
2009,05,22,05,32,4.30
2009,05,22,05,34,4.40
2009,05,22,05,35,4.40
2009,05,22,05,36,4.40
2009,05,22,05,37,4.30
2009,05,22,05,38,4.30
2009,05,22,05,39,4.30
2009,05,22,05,40,4.30
2009,05,22,05,41,4.30
2009,05,22,05,42,4.30
2009,05,22,05,43,4.30
2009,05,22,05,44,4.30
2009,05,22,05,45,4.30
2009,05,22,05,46,4.30
2009,05,22,05,47,4.30
2009,05,22,05,48,4.30
2009,05,22,05,49,4.30
2009,05,22,05,50,4.30
2009,05,22,05,51,4.30
2009,05,22,05,52,4.30
2009,05,22,05,53,4.30
2009,05,22,05,54,4.30
2009,05,22,05,55,4.30
2009,05,22,05,56,4.30
2009,05,22,05,57,4.30
2009,05,22,05,58,4.30
2009,05,22,05,59,4.30
2009,05,22,06,00,4.30
2009,05,22,06,02,4.30
2009,05,22,06,04,4.30
2009,05,22,06,05,4.30
2009,05,22,06,06,4.30
2009,05,22,06,07,4.40
2009,05,22,06,08,4.40
2009,05,22,06,09,4.40
2009,05,22,06,10,4.50
2009,05,22,06,11,4.50
2009,05,22,06,12,4.60
2009,05,22,06,13,4.60
2009,05,22,06,14,4.70
2009,05,22,06,15,4.70
2009,05,22,06,16,4.80
2009,05,22,06,17,4.80
2009,05,22,06,18,4.90
2009,05,22,06,19,4.90
2009,05,22,06,20,4.90
2009,05,22,06,21,5.00
2009,05,22,06,22,5.10
2009,05,22,06,23,5.10
2009,05,22,06,24,5.10
2009,05,22,06,25,5.10
2009,05,22,06,26,5.10
2009,05,22,06,27,5.10
2009,05,22,06,28,5.10
2009,05,22,06,29,5.10
2009,05,22,06,30,5.10
2009,05,22,06,31,5.10
2009,05,22,06,32,5.10
2009,05,22,06,33,5.10
2009,05,22,06,34,5.10
2009,05,22,06,35,5.10
2009,05,22,06,36,5.10
2009,05,22,06,37,5.10
2009,05,22,06,38,5.10
2009,05,22,06,39,5.10
2009,05,22,06,40,5.10
2009,05,22,06,41,5.10
2009,05,22,06,42,5.10
2009,05,22,06,43,5.10
2009,05,22,06,44,5.10
2009,05,22,06,45,5.10
2009,05,22,06,46,5.10
2009,05,22,06,47,5.10
2009,05,22,06,48,5.20
2009,05,22,06,49,5.30
2009,05,22,06,50,5.40
2009,05,22,06,51,5.50
2009,05,22,06,52,5.60
2009,05,22,06,53,5.70
2009,05,22,06,54,5.80
2009,05,22,06,55,5.90
2009,05,22,06,56,6.00
2009,05,22,06,57,6.20
2009,05,22,06,58,6.20
2009,05,22,06,59,6.30
2009,05,22,07,00,6.40
2009,05,22,07,02,6.60
2009,05,22,07,03,6.60
2009,05,22,07,04,6.70
2009,05,22,07,05,6.80
2009,05,22,07,06,6.80
2009,05,22,07,07,6.80
2009,05,22,07,08,6.80
2009,05,22,07,09,6.70
2009,05,22,07,10,6.70
2009,05,22,07,11,6.70
2009,05,22,07,12,6.70
2009,05,22,07,13,6.70
2009,05,22,07,14,6.70
2009,05,22,07,15,6.70
2009,05,22,07,16,6.60
2009,05,22,07,17,6.60
2009,05,22,07,18,6.60
2009,05,22,07,19,6.60
2009,05,22,07,20,6.60
2009,05,22,07,21,6.60
2009,05,22,07,22,6.60
2009,05,22,07,23,6.60
2009,05,22,07,24,6.60
2009,05,22,07,25,6.60
2009,05,22,07,26,6.60
2009,05,22,07,27,6.70
2009,05,22,07,28,6.70
2009,05,22,07,29,6.70
2009,05,22,07,30,6.80
2009,05,22,07,31,6.90
2009,05,22,07,32,6.90
2009,05,22,07,33,6.90
2009,05,22,07,34,7.00
2009,05,22,07,35,7.10
2009,05,22,07,36,7.10
2009,05,22,07,37,7.20
2009,05,22,07,38,7.20
2009,05,22,07,39,7.20
2009,05,22,07,40,7.30
2009,05,22,07,41,7.40
2009,05,22,07,42,7.40
2009,05,22,07,43,7.50
2009,05,22,07,44,7.60
2009,05,22,07,45,7.70
2009,05,22,07,46,7.70
2009,05,22,07,47,7.80
2009,05,22,07,48,7.80
2009,05,22,07,49,7.90
2009,05,22,07,50,7.90
2009,05,22,07,51,7.90
2009,05,22,07,52,8.00
2009,05,22,07,53,8.00
2009,05,22,07,54,8.10
2009,05,22,07,55,8.10
2009,05,22,07,56,8.20
2009,05,22,07,57,8.20
2009,05,22,07,58,8.30
2009,05,22,07,59,8.40
2009,05,22,08,00,8.40
2009,05,22,08,02,8.40
2009,05,22,08,03,8.40
2009,05,22,08,04,8.40
2009,05,22,08,05,8.50
2009,05,22,08,06,8.50
2009,05,22,08,07,8.50
2009,05,22,08,08,8.50
2009,05,22,08,09,8.60
2009,05,22,08,10,8.60
2009,05,22,08,11,8.70
2009,05,22,08,12,8.80
2009,05,22,08,13,8.80
2009,05,22,08,14,9.00
2009,05,22,08,15,9.10
2009,05,22,08,16,9.20
2009,05,22,08,17,9.30
2009,05,22,08,18,9.40
2009,05,22,08,19,9.40
2009,05,22,08,20,9.40
2009,05,22,08,21,9.40
2009,05,22,08,22,9.50
2009,05,22,08,23,9.50
2009,05,22,08,24,9.60
2009,05,22,08,25,9.50
2009,05,22,08,26,9.50
2009,05,22,08,27,9.50
2009,05,22,08,28,9.60
2009,05,22,08,29,9.60
2009,05,22,08,30,9.60
2009,05,22,08,31,9.60
2009,05,22,08,32,9.60
2009,05,22,08,33,9.70
2009,05,22,08,34,9.70
2009,05,22,08,35,9.70
2009,05,22,08,36,9.70
2009,05,22,08,38,9.80
2009,05,22,08,39,9.80
2009,05,22,08,40,9.80
2009,05,22,08,41,9.80
2009,05,22,08,42,9.90
2009,05,22,08,43,10.00
2009,05,22,08,44,10.10
2009,05,22,08,45,10.20
2009,05,22,08,46,10.30
2009,05,22,08,47,10.50
2009,05,22,08,48,10.60
2009,05,22,08,49,10.80
2009,05,22,08,50,10.90
2009,05,22,08,51,11.00
2009,05,22,08,52,11.10
2009,05,22,08,53,11.20
2009,05,22,08,54,11.20
2009,05,22,08,55,11.20
2009,05,22,08,56,11.30
2009,05,22,08,57,11.30
2009,05,22,08,58,11.30
2009,05,22,08,59,11.20
2009,05,22,09,00,11.20
2009,05,22,09,03,11.20
2009,05,22,09,04,11.20
2009,05,22,09,05,11.30
2009,05,22,09,06,11.30
2009,05,22,09,07,11.40
2009,05,22,09,08,11.40
2009,05,22,09,09,11.40
2009,05,22,09,10,11.40
2009,05,22,09,11,11.40
2009,05,22,09,12,11.40
2009,05,22,09,13,11.40
2009,05,22,09,14,11.40
2009,05,22,09,15,11.50
2009,05,22,09,16,11.60
2009,05,22,09,17,11.60
2009,05,22,09,18,11.60
2009,05,22,09,19,11.60
2009,05,22,09,20,11.70
2009,05,22,09,21,11.70
2009,05,22,09,22,11.70
2009,05,22,09,23,11.70
2009,05,22,09,24,11.70
2009,05,22,09,25,11.80
2009,05,22,09,26,11.80
2009,05,22,09,27,11.80
2009,05,22,09,28,11.80
2009,05,22,09,29,11.80
2009,05,22,09,30,11.80
2009,05,22,09,31,11.80
2009,05,22,09,32,11.80
2009,05,22,09,33,11.80
2009,05,22,09,34,11.90
2009,05,22,09,35,11.90
2009,05,22,09,36,12.00
2009,05,22,09,37,12.20
2009,05,22,09,38,12.30
2009,05,22,09,39,12.40
2009,05,22,09,40,12.50
2009,05,22,09,41,12.60
2009,05,22,09,42,12.60
2009,05,22,09,43,12.70
2009,05,22,09,44,12.80
2009,05,22,09,45,12.90
2009,05,22,09,46,13.10
2009,05,22,09,47,13.10
2009,05,22,09,48,13.30
2009,05,22,09,49,13.30
2009,05,22,09,50,13.40
2009,05,22,09,51,13.60
2009,05,22,09,52,13.70
2009,05,22,09,53,13.70
2009,05,22,09,54,13.80
2009,05,22,09,55,13.90
2009,05,22,09,56,13.90
2009,05,22,09,57,14.00
2009,05,22,09,58,14.10
2009,05,22,09,59,14.20
2009,05,22,10,00,14.20
2009,05,22,10,02,14.30
2009,05,22,10,03,14.40
2009,05,22,10,04,14.40
2009,05,22,10,05,14.50
2009,05,22,10,06,14.60
2009,05,22,10,07,14.70
2009,05,22,10,08,14.70
2009,05,22,10,09,14.80
2009,05,22,10,10,14.80
2009,05,22,10,11,15.00
2009,05,22,10,12,15.00
2009,05,22,10,13,15.00
2009,05,22,10,14,15.20
2009,05,22,10,15,15.30
2009,05,22,10,16,15.30
2009,05,22,10,17,15.40
2009,05,22,10,18,15.50
2009,05,22,10,19,15.60
2009,05,22,10,20,15.60
2009,05,22,10,21,15.70
2009,05,22,10,22,15.70
2009,05,22,10,23,15.70
2009,05,22,10,25,15.90
2009,05,22,10,26,15.90
2009,05,22,10,27,16.00
2009,05,22,10,28,16.00
2009,05,22,10,29,16.10
2009,05,22,10,30,16.00
2009,05,22,10,31,16.00
2009,05,22,10,32,16.00
2009,05,22,10,33,16.00
2009,05,22,10,34,16.00
2009,05,22,10,35,16.00
2009,05,22,10,36,16.10
2009,05,22,10,37,16.10
2009,05,22,10,38,16.10
2009,05,22,10,39,16.10
2009,05,22,10,40,16.20
2009,05,22,10,41,16.20
2009,05,22,10,42,16.30
2009,05,22,10,43,16.40
2009,05,22,10,44,16.40
2009,05,22,10,45,16.40
2009,05,22,10,46,16.60
2009,05,22,10,47,16.60
2009,05,22,10,48,16.70
2009,05,22,10,49,16.80
2009,05,22,10,50,16.90
2009,05,22,10,51,16.90
2009,05,22,10,52,16.90
2009,05,22,10,53,16.90
2009,05,22,10,54,16.90
2009,05,22,10,55,16.80
2009,05,22,10,56,16.70
2009,05,22,10,57,16.60
2009,05,22,10,58,16.50
2009,05,22,10,59,16.50
2009,05,22,11,00,16.60
2009,05,22,11,02,16.60
2009,05,22,11,03,16.70
2009,05,22,11,04,16.80
2009,05,22,11,05,16.80
2009,05,22,11,06,16.80
2009,05,22,11,07,16.90
2009,05,22,11,08,17.00
2009,05,22,11,09,17.10
2009,05,22,11,10,17.20
2009,05,22,11,11,17.30
2009,05,22,11,12,17.40
2009,05,22,11,13,17.40
2009,05,22,11,14,17.50
2009,05,22,11,15,17.60
2009,05,22,11,16,17.60
2009,05,22,11,17,17.60
2009,05,22,11,18,17.60
2009,05,22,11,19,17.60
2009,05,22,11,20,17.60
2009,05,22,11,21,17.60
2009,05,22,11,22,17.60
2009,05,22,11,23,17.60
2009,05,22,11,24,17.70
2009,05,22,11,25,17.70
2009,05,22,11,26,17.80
2009,05,22,11,27,17.80
2009,05,22,11,28,17.90
2009,05,22,11,29,18.00
2009,05,22,11,30,18.10
2009,05,22,11,31,18.10
2009,05,22,11,32,18.10
2009,05,22,11,33,18.10
2009,05,22,11,34,18.20
2009,05,22,11,35,18.20
2009,05,22,11,36,18.20
2009,05,22,11,37,18.20
2009,05,22,11,38,18.30
2009,05,22,11,39,18.40
2009,05,22,11,41,18.50
2009,05,22,11,42,18.60
2009,05,22,11,43,18.60
2009,05,22,11,44,18.60
2009,05,22,11,45,18.60
2009,05,22,11,46,18.70
2009,05,22,11,47,18.70
2009,05,22,11,48,18.80
2009,05,22,11,49,18.80
2009,05,22,11,50,18.90
2009,05,22,11,51,18.90
2009,05,22,11,52,18.90
2009,05,22,11,53,18.90
2009,05,22,11,54,18.80
2009,05,22,11,55,18.70
2009,05,22,11,56,18.70
2009,05,22,11,57,18.70
2009,05,22,11,58,18.80
2009,05,22,11,59,18.80
2009,05,22,12,00,18.90
2009,05,22,12,02,19.00
2009,05,22,12,03,19.10
2009,05,22,12,04,19.10
2009,05,22,12,05,19.20
2009,05,22,12,06,19.20
2009,05,22,12,07,19.30
2009,05,22,12,08,19.30
2009,05,22,12,09,19.20
2009,05,22,12,10,19.10
2009,05,22,12,11,19.10
2009,05,22,12,12,19.10
2009,05,22,12,13,19.10
2009,05,22,12,14,19.10
2009,05,22,12,15,19.10
2009,05,22,12,16,19.10
2009,05,22,12,17,19.20
2009,05,22,12,18,19.20
2009,05,22,12,19,19.30
2009,05,22,12,20,19.30
2009,05,22,12,21,19.40
2009,05,22,12,22,19.50
2009,05,22,12,23,19.60
2009,05,22,12,24,19.70
2009,05,22,12,25,19.80
2009,05,22,12,26,19.90
2009,05,22,12,27,20.10
2009,05,22,12,28,20.20
2009,05,22,12,29,20.20
2009,05,22,12,30,20.30
2009,05,22,12,31,20.30
2009,05,22,12,32,20.40
2009,05,22,12,33,20.50
2009,05,22,12,34,20.60
2009,05,22,12,35,20.60
2009,05,22,12,36,20.60
2009,05,22,12,37,20.60
2009,05,22,12,38,20.60
2009,05,22,12,39,20.70
2009,05,22,12,40,20.70
2009,05,22,12,41,20.80
2009,05,22,12,42,20.80
2009,05,22,12,43,20.90
2009,05,22,12,44,21.10
2009,05,22,12,45,21.20
2009,05,22,12,46,21.30
2009,05,22,12,47,21.30
2009,05,22,12,48,21.40
2009,05,22,12,49,21.50
2009,05,22,12,50,21.40
2009,05,22,12,51,21.30
2009,05,22,12,52,21.40
2009,05,22,12,53,21.40
2009,05,22,12,54,21.50
2009,05,22,12,55,21.60
2009,05,22,12,56,21.70
2009,05,22,12,57,21.80
2009,05,22,12,58,21.80
2009,05,22,12,59,21.90
2009,05,22,13,00,22.00
2009,05,22,13,02,22.20
2009,05,22,13,03,22.20
2009,05,22,13,04,22.30
2009,05,22,13,05,22.40
2009,05,22,13,06,22.50
2009,05,22,13,07,22.60
2009,05,22,13,08,22.60
2009,05,22,13,09,22.70
2009,05,22,13,10,22.70
2009,05,22,13,11,22.80
2009,05,22,13,12,22.90
2009,05,22,13,13,22.90
2009,05,22,13,14,23.00
2009,05,22,13,15,23.00
2009,05,22,13,16,23.10
2009,05,22,13,17,23.10
2009,05,22,13,18,23.20
2009,05,22,13,19,23.20
2009,05,22,13,20,23.30
2009,05,22,13,21,23.30
2009,05,22,13,22,23.30
2009,05,22,13,23,23.40
2009,05,22,13,24,23.40
2009,05,22,13,25,23.40
2009,05,22,13,26,23.40
2009,05,22,13,27,23.50
2009,05,22,13,28,23.60
2009,05,22,13,29,23.60
2009,05,22,13,30,23.60
2009,05,22,13,31,23.70
2009,05,22,13,32,23.70
2009,05,22,13,33,23.70
2009,05,22,13,35,23.70
2009,05,22,13,36,23.70
2009,05,22,13,37,23.70
2009,05,22,13,38,23.80
2009,05,22,13,39,23.80
2009,05,22,13,40,23.90
2009,05,22,13,41,23.90
2009,05,22,13,42,23.90
2009,05,22,13,43,23.90
2009,05,22,13,44,23.90
2009,05,22,13,45,24.00
2009,05,22,13,46,24.00
2009,05,22,13,47,24.00
2009,05,22,13,48,24.00
2009,05,22,13,49,24.00
2009,05,22,13,50,24.00
2009,05,22,13,51,24.00
2009,05,22,13,52,24.10
2009,05,22,13,53,24.10
2009,05,22,13,54,24.10
2009,05,22,13,55,24.10
2009,05,22,13,56,24.20
2009,05,22,13,57,24.20
2009,05,22,13,58,24.20
2009,05,22,13,59,24.30
2009,05,22,14,00,24.30
2009,05,22,14,02,24.30
2009,05,22,14,03,24.30
2009,05,22,14,04,24.40
2009,05,22,14,05,24.40
2009,05,22,14,06,24.40
2009,05,22,14,07,24.40
2009,05,22,14,08,24.40
2009,05,22,14,09,24.50
2009,05,22,14,10,24.50
2009,05,22,14,11,24.50
2009,05,22,14,12,24.60
2009,05,22,14,13,24.60
2009,05,22,14,14,24.60
2009,05,22,14,15,24.60
2009,05,22,14,16,24.60
2009,05,22,14,17,24.60
2009,05,22,14,18,24.70
2009,05,22,14,19,24.70
2009,05,22,14,21,24.60
2009,05,22,14,22,24.60
2009,05,22,14,23,24.60
2009,05,22,14,24,24.60
2009,05,22,14,25,24.60
2009,05,22,14,26,24.60
2009,05,22,14,28,24.60
2009,05,22,14,29,24.60
2009,05,22,14,30,24.60
2009,05,22,14,31,24.60
2009,05,22,14,32,24.60
2009,05,22,14,33,24.70
2009,05,22,14,34,24.70
2009,05,22,14,35,24.70
2009,05,22,14,36,24.70
2009,05,22,14,37,24.70
2009,05,22,14,38,24.80
2009,05,22,14,39,24.80
2009,05,22,14,40,24.80
2009,05,22,14,41,24.80
2009,05,22,14,42,24.80
2009,05,22,14,43,24.80
2009,05,22,14,44,24.80
2009,05,22,14,45,24.80
2009,05,22,14,46,24.80
2009,05,22,14,47,24.80
2009,05,22,14,48,24.80
2009,05,22,14,49,24.80
2009,05,22,14,50,24.80
2009,05,22,14,51,24.80
2009,05,22,14,52,24.80
2009,05,22,14,53,24.70
2009,05,22,14,54,24.70
2009,05,22,14,55,24.70
2009,05,22,14,56,24.80
2009,05,22,14,57,24.80
2009,05,22,14,58,24.80
2009,05,22,14,59,24.80
2009,05,22,15,00,24.80
2009,05,22,15,02,24.80
2009,05,22,15,03,24.80
2009,05,22,15,04,24.80
2009,05,22,15,05,24.80
2009,05,22,15,06,24.80
2009,05,22,15,07,24.90
2009,05,22,15,08,24.90
2009,05,22,15,09,24.90
2009,05,22,15,10,24.90
2009,05,22,15,11,24.90
2009,05,22,15,12,24.90
2009,05,22,15,13,24.80
2009,05,22,15,14,24.80
2009,05,22,15,15,24.80
2009,05,22,15,16,24.80
2009,05,22,15,17,24.80
2009,05,22,15,18,24.80
2009,05,22,15,19,24.80
2009,05,22,15,20,24.80
2009,05,22,15,21,24.80
2009,05,22,15,22,24.80
2009,05,22,15,23,24.80
2009,05,22,15,24,24.80
2009,05,22,15,25,24.80
2009,05,22,15,26,24.80
2009,05,22,15,27,24.80
2009,05,22,15,28,24.80
2009,05,22,15,29,24.80
2009,05,22,15,30,24.80
2009,05,22,15,31,24.80
2009,05,22,15,32,24.80
2009,05,22,15,33,24.80
2009,05,22,15,34,24.80
2009,05,22,15,35,24.80
2009,05,22,15,36,24.80
2009,05,22,15,37,24.80
2009,05,22,15,38,24.80
2009,05,22,15,39,24.80
2009,05,22,15,40,24.80
2009,05,22,15,41,24.80
2009,05,22,15,42,24.90
2009,05,22,15,43,24.90
2009,05,22,15,44,24.90
2009,05,22,15,45,24.90
2009,05,22,15,46,24.90
2009,05,22,15,47,25.00
2009,05,22,15,48,25.10
2009,05,22,15,49,25.10
2009,05,22,15,50,25.10
2009,05,22,15,51,25.10
2009,05,22,15,52,25.20
2009,05,22,15,53,25.10
2009,05,22,15,54,25.20
2009,05,22,15,55,25.10
2009,05,22,15,56,25.10
2009,05,22,15,57,25.10
2009,05,22,15,58,25.10
2009,05,22,15,59,25.20
2009,05,22,16,00,25.20
2009,05,22,16,02,25.20
2009,05,22,16,03,25.20
2009,05,22,16,04,25.20
2009,05,22,16,05,25.20
2009,05,22,16,06,25.20
2009,05,22,16,07,25.20
2009,05,22,16,08,25.20
2009,05,22,16,09,25.20
2009,05,22,16,10,25.20
2009,05,22,16,11,25.20
2009,05,22,16,12,25.20
2009,05,22,16,13,25.20
2009,05,22,16,14,25.10
2009,05,22,16,15,25.10
2009,05,22,16,16,25.10
2009,05,22,16,17,25.10
2009,05,22,16,18,25.10
2009,05,22,16,19,25.10
2009,05,22,16,20,25.10
2009,05,22,16,21,25.10
2009,05,22,16,22,25.10
2009,05,22,16,23,25.10
2009,05,22,16,24,25.10
2009,05,22,16,25,25.20
2009,05,22,16,26,25.20
2009,05,22,16,27,25.20
2009,05,22,16,28,25.20
2009,05,22,16,29,25.20
2009,05,22,16,30,25.20
2009,05,22,16,31,25.20
2009,05,22,16,32,25.20
2009,05,22,16,33,25.20
2009,05,22,16,34,25.20
2009,05,22,16,35,25.20
2009,05,22,16,36,25.20
2009,05,22,16,37,25.20
2009,05,22,16,38,25.20
2009,05,22,16,39,25.20
2009,05,22,16,40,25.10
2009,05,22,16,41,25.10
2009,05,22,16,42,25.10
2009,05,22,16,43,25.10
2009,05,22,16,44,25.10
2009,05,22,16,45,25.00
2009,05,22,16,46,25.00
2009,05,22,16,47,24.90
2009,05,22,16,48,24.90
2009,05,22,16,49,24.80
2009,05,22,16,50,24.80
2009,05,22,16,51,24.80
2009,05,22,16,52,24.80
2009,05,22,16,53,24.80
2009,05,22,16,54,24.80
2009,05,22,16,55,24.80
2009,05,22,16,56,24.80
2009,05,22,16,57,24.70
2009,05,22,16,58,24.60
2009,05,22,16,59,24.60
2009,05,22,17,00,24.50
2009,05,22,17,02,24.40
2009,05,22,17,03,24.40
2009,05,22,17,04,24.40
2009,05,22,17,05,24.40
2009,05,22,17,06,24.40
2009,05,22,17,07,24.40
2009,05,22,17,08,24.40
2009,05,22,17,09,24.40
2009,05,22,17,10,24.40
2009,05,22,17,11,24.30
2009,05,22,17,12,24.30
2009,05,22,17,13,24.30
2009,05,22,17,14,24.30
2009,05,22,17,15,24.30
2009,05,22,17,16,24.20
2009,05,22,17,17,24.20
2009,05,22,17,18,24.20
2009,05,22,17,19,24.20
2009,05,22,17,20,24.20
2009,05,22,17,21,24.20
2009,05,22,17,22,24.20
2009,05,22,17,23,24.20
2009,05,22,17,24,24.20
2009,05,22,17,25,24.20
2009,05,22,17,26,24.10
2009,05,22,17,27,24.10
2009,05,22,17,28,24.00
2009,05,22,17,29,23.90
2009,05,22,17,30,23.90
2009,05,22,17,31,23.90
2009,05,22,17,32,23.80
2009,05,22,17,33,23.80
2009,05,22,17,34,23.70
2009,05,22,17,35,23.70
2009,05,22,17,36,23.70
2009,05,22,17,37,23.70
2009,05,22,17,38,23.70
2009,05,22,17,39,23.70
2009,05,22,17,40,23.70
2009,05,22,17,41,23.70
2009,05,22,17,42,23.60
2009,05,22,17,43,23.60
2009,05,22,17,44,23.60
2009,05,22,17,45,23.60
2009,05,22,17,46,23.60
2009,05,22,17,47,23.60
2009,05,22,17,48,23.60
2009,05,22,17,49,23.60
2009,05,22,17,50,23.60
2009,05,22,17,51,23.60
2009,05,22,17,52,23.70
2009,05,22,17,53,23.70
2009,05,22,17,54,23.70
2009,05,22,17,55,23.60
2009,05,22,17,56,23.60
2009,05,22,17,57,23.60
2009,05,22,17,58,23.60
2009,05,22,17,59,23.50
2009,05,22,18,00,23.40
2009,05,22,18,02,23.40
2009,05,22,18,03,23.30
2009,05,22,18,04,23.30
2009,05,22,18,05,23.20
2009,05,22,18,06,23.10
2009,05,22,18,07,23.10
2009,05,22,18,08,23.00
2009,05,22,18,09,22.90
2009,05,22,18,10,22.90
2009,05,22,18,11,22.80
2009,05,22,18,12,22.80
2009,05,22,18,13,22.70
2009,05,22,18,14,22.70
2009,05,22,18,15,22.70
2009,05,22,18,16,22.60
2009,05,22,18,17,22.60
2009,05,22,18,18,22.60
2009,05,22,18,19,22.60
2009,05,22,18,20,22.50
2009,05,22,18,21,22.50
2009,05,22,18,22,22.40
2009,05,22,18,23,22.40
2009,05,22,18,24,22.40
2009,05,22,18,25,22.40
2009,05,22,18,26,22.40
2009,05,22,18,27,22.30
2009,05,22,18,28,22.30